"read_dt","SO2 (ppb)","flags","PMT voltage (V)","lamp voltage (V)","lamp intensity (Hz)","internal temp (C)","react chamber temp (C)","sample flow (l/min)","pres (mmHg)","SO2 bkg (ppb)","SO2 coefficient"
2014-02-23 00:00:00,5133E-2,5C000490,-0724,1374,6397,020.5,045.0,0.132,768.6,01.15,0.508
2014-02-23 00:01:00,5163E-2,5C000490,-0724,1374,6517,020.5,045.1,0.132,768.6,01.15,0.508
2014-02-23 00:02:00,5212E-2,5C000490,-0724,1374,6509,020.5,045.1,0.132,768.5,01.15,0.508
2014-02-23 00:03:00,5193E-2,5C000490,-0724,1374,6439,020.5,045.1,0.132,768.4,01.15,0.508
2014-02-23 00:04:00,5180E-2,5C000490,-0724,1374,6427,020.5,045.0,0.132,768.5,01.15,0.508
2014-02-23 00:05:00,5135E-2,5C000490,-0724,1374,6427,020.5,045.1,0.132,768.5,01.15,0.508
2014-02-23 00:06:00,5250E-2,5C000490,-0724,1374,6449,020.5,045.1,0.132,768.6,01.15,0.508
2014-02-23 00:07:00,5097E-2,5C000490,-0724,1374,6467,020.5,045.1,0.132,768.5,01.15,0.508
2014-02-23 00:08:00,5036E-2,5C000490,-0724,1374,6464,020.5,045.1,0.132,768.4,01.15,0.508
2014-02-23 00:09:00,5098E-2,5C000490,-0724,1374,6447,020.5,045.1,0.132,768.4,01.15,0.508
2014-02-23 00:10:00,5090E-2,5C000490,-0724,1374,6371,020.5,045.0,0.132,768.5,01.15,0.508
2014-02-23 00:11:00,5076E-2,5C000490,-0724,1374,6445,020.5,045.1,0.132,768.4,01.15,0.508
2014-02-23 00:12:00,5020E-2,5C000490,-0724,1374,6405,020.4,045.1,0.132,768.4,01.15,0.508
2014-02-23 00:13:00,5078E-2,5C000490,-0724,1374,6443,020.5,045.1,0.132,768.4,01.15,0.508
2014-02-23 00:14:00,5069E-2,5C000490,-0724,1374,6444,020.5,045.1,0.132,768.4,01.15,0.508
2014-02-23 00:15:00,5033E-2,5C000490,-0724,1374,6366,020.4,045.0,0.132,768.4,01.15,0.508
2014-02-23 00:16:00,4984E-2,5C000490,-0724,1374,6419,020.4,045.1,0.132,768.4,01.15,0.508
2014-02-23 00:17:00,5007E-2,5C000490,-0724,1374,6414,020.5,045.1,0.132,768.4,01.15,0.508
2014-02-23 00:18:00,5021E-2,5C000490,-0724,1374,6391,020.4,045.1,0.132,768.4,01.15,0.508
2014-02-23 00:19:00,5046E-2,5C000490,-0724,1374,6427,020.4,045.1,0.132,768.3,01.15,0.508
2014-02-23 00:20:00,5023E-2,5C000490,-0724,1374,6457,020.5,045.0,0.132,768.3,01.15,0.508
2014-02-23 00:21:00,4961E-2,5C000490,-0724,1374,6522,020.4,045.1,0.132,768.3,01.15,0.508
2014-02-23 00:22:00,4964E-2,5C000490,-0724,1374,6515,020.4,045.0,0.132,768.3,01.15,0.508
2014-02-23 00:23:00,4994E-2,5C000490,-0724,1374,6406,020.5,045.1,0.132,768.4,01.15,0.508
2014-02-23 00:24:00,4988E-2,5C000490,-0724,1374,6479,020.5,045.1,0.132,768.3,01.15,0.508
2014-02-23 00:25:00,5005E-2,5C000490,-0724,1374,6522,020.4,045.1,0.132,768.3,01.15,0.508
2014-02-23 00:26:00,5003E-2,5C000490,-0724,1374,6397,020.5,045.1,0.132,768.3,01.15,0.508
2014-02-23 00:27:00,5009E-2,5C000490,-0724,1374,6370,020.5,045.1,0.132,768.3,01.15,0.508
2014-02-23 00:28:00,4966E-2,5C000490,-0724,1374,6412,020.5,045.1,0.132,768.3,01.15,0.508
2014-02-23 00:29:00,5009E-2,5C000490,-0724,1374,6419,020.4,045.1,0.132,768.3,01.15,0.508
2014-02-23 00:30:00,4985E-2,5C000490,-0724,1374,6436,020.4,045.1,0.132,768.3,01.15,0.508
2014-02-23 00:31:00,5030E-2,5C000490,-0724,1375,6394,020.5,045.1,0.132,768.3,01.15,0.508
2014-02-23 00:32:00,4980E-2,5C000490,-0724,1375,6397,020.5,045.0,0.132,768.2,01.15,0.508
2014-02-23 00:33:00,5005E-2,5C000490,-0724,1375,6334,020.4,045.0,0.132,768.3,01.15,0.508
2014-02-23 00:34:00,4974E-2,5C000490,-0724,1375,6371,020.4,045.1,0.132,768.3,01.15,0.508
2014-02-23 00:35:00,4971E-2,5C000490,-0724,1375,6253,020.4,045.0,0.132,768.2,01.15,0.508
2014-02-23 00:36:00,4986E-2,5C000490,-0724,1375,6390,020.5,045.1,0.132,768.3,01.15,0.508
2014-02-23 00:37:00,4949E-2,5C000490,-0724,1375,6340,020.5,045.0,0.132,768.3,01.15,0.508
2014-02-23 00:38:00,4955E-2,5C000490,-0724,1375,6293,020.5,045.1,0.132,768.3,01.15,0.508
2014-02-23 00:39:00,4965E-2,5C000490,-0724,1375,6372,020.5,045.1,0.132,768.2,01.15,0.508
2014-02-23 00:40:00,4961E-2,5C000490,-0724,1375,6282,020.5,045.1,0.132,768.2,01.15,0.508
2014-02-23 00:41:00,4967E-2,5C000490,-0724,1375,6254,020.4,045.1,0.132,768.3,01.15,0.508
2014-02-23 00:42:00,4979E-2,5C000490,-0724,1375,6349,020.5,045.1,0.132,768.4,01.15,0.508
2014-02-23 00:43:00,4923E-2,5C000490,-0724,1375,6345,020.5,045.1,0.132,768.3,01.15,0.508
2014-02-23 00:44:00,4894E-2,5C000490,-0724,1375,6306,020.4,045.1,0.132,768.2,01.15,0.508
2014-02-23 00:45:00,4888E-2,5C000490,-0724,1375,6147,020.4,045.0,0.132,768.2,01.15,0.508
2014-02-23 00:46:00,4946E-2,5C000490,-0724,1375,6297,020.4,045.1,0.132,768.3,01.15,0.508
2014-02-23 00:47:00,4927E-2,5C000490,-0724,1375,6298,020.5,045.1,0.132,768.3,01.15,0.508
2014-02-23 00:48:00,4960E-2,5C000490,-0724,1375,6315,020.4,045.1,0.132,768.2,01.15,0.508
2014-02-23 00:49:00,5008E-2,5C000490,-0724,1375,6204,020.4,045.0,0.132,768.2,01.15,0.508
2014-02-23 00:50:00,4937E-2,5C000490,-0724,1375,6222,020.4,045.1,0.132,768.3,01.15,0.508
2014-02-23 00:51:00,4969E-2,5C000490,-0724,1375,6286,020.5,045.1,0.132,768.3,01.15,0.508
2014-02-23 00:52:00,4952E-2,5C000490,-0724,1375,6233,020.4,045.0,0.132,768.2,01.15,0.508
2014-02-23 00:53:00,4989E-2,5C000490,-0724,1375,6232,020.4,045.0,0.132,768.2,01.15,0.508
2014-02-23 00:54:00,4939E-2,5C000490,-0724,1375,6111,020.5,045.0,0.132,768.3,01.15,0.508
2014-02-23 00:55:00,4945E-2,5C000490,-0724,1375,6160,020.5,045.1,0.132,768.3,01.15,0.508
2014-02-23 00:56:00,4944E-2,5C000490,-0724,1375,6229,020.5,045.1,0.132,768.4,01.15,0.508
2014-02-23 00:57:00,4948E-2,5C000490,-0724,1375,6296,020.4,045.1,0.132,768.5,01.15,0.508
2014-02-23 00:58:00,4919E-2,5C000490,-0724,1375,6236,020.5,045.1,0.132,768.5,01.15,0.508
2014-02-23 00:59:00,4981E-2,5C000490,-0724,1375,6409,020.5,045.1,0.132,768.5,01.15,0.508
2014-02-23 01:00:00,5011E-2,5C000490,-0724,1375,6282,020.5,045.1,0.132,768.6,01.15,0.508
2014-02-23 01:01:00,4967E-2,5C000490,-0724,1374,6473,020.5,045.0,0.132,768.5,01.15,0.508
2014-02-23 01:02:00,4949E-2,5C000490,-0724,1374,6451,020.5,045.1,0.132,768.6,01.15,0.508
2014-02-23 01:03:00,4910E-2,5C000490,-0724,1374,6485,020.5,045.1,0.132,768.6,01.15,0.508
2014-02-23 01:04:00,4908E-2,5C000490,-0724,1374,6502,020.5,045.0,0.132,768.5,01.15,0.508
2014-02-23 01:05:00,4919E-2,5C000490,-0724,1374,6556,020.5,045.0,0.132,768.6,01.15,0.508
2014-02-23 01:06:00,4872E-2,5C000490,-0724,1374,6470,020.5,045.0,0.132,768.6,01.15,0.508
2014-02-23 01:07:00,4928E-2,5C000490,-0724,1374,6382,020.5,045.1,0.132,768.7,01.15,0.508
2014-02-23 01:08:00,4937E-2,5C000490,-0724,1374,6450,020.5,045.1,0.132,768.5,01.15,0.508
2014-02-23 01:09:00,4929E-2,5C000490,-0724,1374,6529,020.5,045.1,0.132,768.5,01.15,0.508
2014-02-23 01:10:00,4940E-2,5C000490,-0724,1374,6488,020.5,045.1,0.132,768.5,01.15,0.508
2014-02-23 01:11:00,4916E-2,5C000490,-0724,1374,6375,020.5,045.1,0.132,768.6,01.15,0.508
2014-02-23 01:12:00,4920E-2,5C000490,-0724,1374,6366,020.5,045.1,0.132,768.5,01.15,0.508
2014-02-23 01:13:00,4908E-2,5C000490,-0724,1374,6372,020.5,045.1,0.132,768.4,01.15,0.508
2014-02-23 01:14:00,4909E-2,5C000490,-0724,1374,6425,020.5,045.1,0.132,768.5,01.15,0.508
2014-02-23 01:15:00,4955E-2,5C000490,-0724,1374,6474,020.5,045.1,0.132,768.6,01.15,0.508
2014-02-23 01:16:00,4944E-2,5C000490,-0724,1374,6418,020.5,045.1,0.132,768.5,01.15,0.508
2014-02-23 01:17:00,4960E-2,5C000490,-0724,1374,6459,020.5,045.1,0.132,768.3,01.15,0.508
2014-02-23 01:18:00,4948E-2,5C000490,-0724,1374,6409,020.5,045.1,0.132,768.4,01.15,0.508
2014-02-23 01:19:00,5010E-2,5C000490,-0724,1374,6397,020.5,045.1,0.132,768.5,01.15,0.508
2014-02-23 01:20:00,5030E-2,5C000490,-0724,1374,6412,020.5,045.1,0.132,768.4,01.15,0.508
2014-02-23 01:21:00,5007E-2,5C000490,-0724,1374,6454,020.5,045.1,0.132,768.3,01.15,0.508
2014-02-23 01:22:00,4963E-2,5C000490,-0724,1374,6388,020.5,045.1,0.132,768.4,01.15,0.508
2014-02-23 01:23:00,5030E-2,5C000490,-0724,1374,6473,020.5,045.1,0.132,768.3,01.15,0.508
2014-02-23 01:24:00,4991E-2,5C000490,-0724,1374,6545,020.5,045.0,0.132,768.3,01.15,0.508
2014-02-23 01:25:00,4999E-2,5C000490,-0724,1374,6497,020.5,045.1,0.132,768.4,01.15,0.508
2014-02-23 01:26:00,4980E-2,5C000490,-0724,1374,6569,020.6,045.1,0.132,768.3,01.15,0.508
2014-02-23 01:27:00,4997E-2,5C000490,-0724,1374,6488,020.6,045.1,0.132,768.3,01.15,0.508
2014-02-23 01:28:00,4971E-2,5C000490,-0724,1374,6440,020.6,045.0,0.132,768.3,01.15,0.508
2014-02-23 01:29:00,5009E-2,5C000490,-0724,1374,6548,020.6,045.1,0.132,768.3,01.15,0.508
2014-02-23 01:30:00,5002E-2,5C000490,-0724,1374,6433,020.6,045.1,0.132,768.3,01.15,0.508
2014-02-23 01:31:00,5031E-2,5C000490,-0724,1374,6710,020.6,045.1,0.132,768.3,01.15,0.508
2014-02-23 01:32:00,5439E-2,5C000490,-0724,1373,6633,020.6,045.1,0.132,768.3,01.15,0.508
2014-02-23 01:33:00,5489E-2,5C000490,-0724,1373,6644,020.6,045.1,0.132,768.3,01.15,0.508
2014-02-23 01:34:00,5522E-2,5C000490,-0724,1373,6601,020.6,045.1,0.131,768.2,01.15,0.508
2014-02-23 01:35:00,5511E-2,5C000490,-0724,1373,6525,020.6,045.1,0.131,768.4,01.15,0.508
2014-02-23 01:36:00,5647E-2,5C000490,-0724,1364,6897,020.6,045.1,0.131,768.3,01.15,0.508
2014-02-23 01:37:00,5792E-2,5C000490,-0724,1364,6939,020.6,045.1,0.132,768.3,01.15,0.508
2014-02-23 01:38:00,5757E-2,5C000490,-0724,1366,6886,020.6,045.1,0.131,768.3,01.15,0.508
2014-02-23 01:39:00,5756E-2,5C000490,-0724,1368,6893,020.6,045.1,0.131,768.2,01.15,0.508
2014-02-23 01:40:00,5777E-2,5C000490,-0724,1369,6828,020.6,045.1,0.131,768.2,01.15,0.508
2014-02-23 01:41:00,5735E-2,5C000490,-0724,1369,6751,020.7,045.1,0.131,768.3,01.15,0.508
2014-02-23 01:42:00,5749E-2,5C000490,-0724,1370,6740,020.6,045.1,0.131,768.2,01.15,0.508
2014-02-23 01:43:00,5751E-2,5C000490,-0724,1370,6637,020.6,045.1,0.131,768.2,01.15,0.508
2014-02-23 01:44:00,5775E-2,5C000490,-0724,1371,6690,020.7,045.1,0.131,768.1,01.15,0.508
2014-02-23 01:45:00,5777E-2,5C000490,-0724,1371,6693,020.7,045.0,0.131,768.0,01.15,0.508
2014-02-23 01:46:00,5710E-2,5C000490,-0724,1372,6712,020.7,045.1,0.131,768.1,01.15,0.508
2014-02-23 01:47:00,5767E-2,5C000490,-0724,1371,6775,020.7,045.1,0.131,768.2,01.15,0.508
2014-02-23 01:48:00,5802E-2,5C000490,-0724,1371,6694,020.7,045.1,0.131,768.2,01.15,0.508
2014-02-23 01:49:00,5850E-2,5C000490,-0724,1372,6695,020.7,045.1,0.131,768.1,01.15,0.508
2014-02-23 01:50:00,5749E-2,5C000490,-0724,1372,6684,020.7,045.1,0.131,768.1,01.15,0.508
2014-02-23 01:51:00,5758E-2,5C000490,-0724,1373,6608,020.7,045.1,0.131,768.1,01.15,0.508
2014-02-23 01:52:00,5859E-2,5C000490,-0724,1373,6704,020.7,045.1,0.131,768.1,01.15,0.508
2014-02-23 01:53:00,5788E-2,5C000490,-0724,1373,6509,020.7,045.1,0.131,768.1,01.15,0.508
2014-02-23 01:54:00,5843E-2,5C000490,-0724,1373,6553,020.7,045.1,0.131,768.2,01.15,0.508
2014-02-23 01:55:00,5742E-2,5C000490,-0724,1373,6440,020.7,045.1,0.131,768.3,01.15,0.508
2014-02-23 01:56:00,5808E-2,5C000490,-0724,1374,6623,020.7,045.1,0.131,768.1,01.15,0.508
2014-02-23 01:57:00,5775E-2,5C000490,-0724,1373,6617,020.7,045.1,0.131,768.0,01.15,0.508
2014-02-23 01:58:00,5793E-2,5C000490,-0724,1373,6700,020.7,045.1,0.131,768.1,01.15,0.508
2014-02-23 01:59:00,5746E-2,5C000490,-0724,1373,6501,020.7,045.1,0.131,768.2,01.15,0.508
2014-02-23 02:00:00,5736E-2,5C000490,-0724,1372,6721,020.7,045.1,0.131,768.2,01.15,0.508
2014-02-23 02:01:00,5738E-2,5C000490,-0724,1372,6668,020.7,045.1,0.131,768.0,01.15,0.508
2014-02-23 02:02:00,5793E-2,5C000490,-0724,1371,6683,020.7,045.1,0.131,768.1,01.15,0.508
2014-02-23 02:03:00,5790E-2,5C000490,-0724,1371,6692,020.7,045.1,0.131,768.1,01.15,0.508
2014-02-23 02:04:00,5816E-2,5C000490,-0724,1372,6655,020.8,045.1,0.131,768.0,01.15,0.508
2014-02-23 02:05:00,5782E-2,5C000490,-0724,1372,6594,020.8,045.1,0.131,768.1,01.15,0.508
2014-02-23 02:06:00,5807E-2,5C000490,-0724,1373,6599,020.8,045.1,0.131,768.2,01.15,0.508
2014-02-23 02:07:00,5780E-2,5C000490,-0724,1373,6652,020.8,045.1,0.131,768.3,01.15,0.508
2014-02-23 02:08:00,5745E-2,5C000490,-0724,1373,6630,020.8,045.1,0.131,768.1,01.15,0.508
2014-02-23 02:09:00,5748E-2,5C000490,-0724,1373,6435,020.8,045.1,0.131,768.0,01.15,0.508
2014-02-23 02:10:00,5865E-2,5C000490,-0724,1374,6563,020.8,045.1,0.131,768.1,01.15,0.508
2014-02-23 02:11:00,5839E-2,5C000490,-0724,1374,6581,020.8,045.1,0.131,768.1,01.15,0.508
2014-02-23 02:12:00,5726E-2,5C000490,-0724,1373,6658,020.8,045.1,0.131,768.1,01.15,0.508
2014-02-23 02:13:00,5745E-2,5C000490,-0724,1373,6647,020.8,045.1,0.131,768.1,01.15,0.508
2014-02-23 02:14:00,5830E-2,5C000490,-0724,1373,6603,020.8,045.1,0.131,768.1,01.15,0.508
2014-02-23 02:15:00,5810E-2,5C000490,-0724,1373,6628,020.8,045.1,0.131,768.0,01.15,0.508
2014-02-23 02:16:00,5802E-2,5C000490,-0724,1373,6608,020.8,045.1,0.131,768.1,01.15,0.508
2014-02-23 02:17:00,5801E-2,5C000490,-0724,1374,6530,020.8,045.1,0.131,768.1,01.15,0.508
2014-02-23 02:18:00,5789E-2,5C000490,-0724,1374,6645,020.8,045.1,0.131,768.0,01.15,0.508
2014-02-23 02:19:00,5822E-2,5C000490,-0724,1373,6475,020.8,045.1,0.131,768.1,01.15,0.508
2014-02-23 02:20:00,5780E-2,5C000490,-0724,1374,6619,020.8,045.1,0.130,768.1,01.15,0.508
2014-02-23 02:21:00,5719E-2,5C000490,-0724,1374,6543,020.8,045.1,0.130,768.0,01.15,0.508
2014-02-23 02:22:00,5772E-2,5C000490,-0724,1374,6514,020.8,045.0,0.131,768.1,01.15,0.508
2014-02-23 02:23:00,5840E-2,5C000490,-0724,1374,6568,020.8,045.1,0.130,768.1,01.15,0.508
2014-02-23 02:24:00,5824E-2,5C000490,-0724,1373,6589,020.9,045.1,0.130,768.1,01.15,0.508
2014-02-23 02:25:00,5790E-2,5C000490,-0724,1374,6519,020.9,045.1,0.130,768.1,01.15,0.508
2014-02-23 02:26:00,5842E-2,5C000490,-0724,1374,6585,020.9,045.1,0.130,768.1,01.15,0.508
2014-02-23 02:27:00,5769E-2,5C000490,-0724,1374,6503,020.9,045.1,0.130,768.2,01.15,0.508
2014-02-23 02:28:00,5847E-2,5C000490,-0724,1374,6543,020.9,045.1,0.130,768.1,01.15,0.508
2014-02-23 02:29:00,5865E-2,5C000490,-0724,1374,6595,020.9,045.1,0.130,768.0,01.15,0.508
2014-02-23 02:30:00,5843E-2,5C000490,-0724,1374,6499,020.9,045.1,0.130,768.1,01.15,0.508
2014-02-23 02:31:00,5855E-2,5C000490,-0724,1374,6511,020.9,045.1,0.130,768.1,01.15,0.508
2014-02-23 02:32:00,5760E-2,5C000490,-0724,1374,6578,020.9,045.1,0.130,768.1,01.15,0.508
2014-02-23 02:33:00,5786E-2,5C000490,-0724,1374,6485,020.9,045.1,0.130,768.2,01.15,0.508
2014-02-23 02:34:00,5800E-2,5C000490,-0724,1374,6402,020.9,045.1,0.130,768.1,01.15,0.508
2014-02-23 02:35:00,5805E-2,5C000490,-0724,1374,6502,020.9,045.1,0.130,768.0,01.15,0.508
2014-02-23 02:36:00,5786E-2,5C000490,-0724,1374,6412,020.9,045.1,0.130,768.0,01.15,0.508
2014-02-23 02:37:00,5880E-2,5C000490,-0724,1375,6472,020.9,045.1,0.130,768.1,01.15,0.508
2014-02-23 02:38:00,5833E-2,5C000490,-0724,1375,6402,020.9,045.1,0.130,768.0,01.15,0.508
2014-02-23 02:39:00,5810E-2,5C000490,-0724,1375,6336,020.9,045.1,0.130,768.0,01.15,0.508
2014-02-23 02:40:00,5787E-2,5C000490,-0724,1375,6309,020.9,045.1,0.130,768.0,01.15,0.508
2014-02-23 02:41:00,5801E-2,5C000490,-0724,1375,6280,021.0,045.1,0.130,768.1,01.15,0.508
2014-02-23 02:42:00,5813E-2,5C000490,-0724,1374,6477,021.0,045.1,0.130,768.1,01.15,0.508
2014-02-23 02:43:00,5787E-2,5C000490,-0724,1374,6518,020.9,045.1,0.130,768.0,01.15,0.508
2014-02-23 02:44:00,5837E-2,5C000490,-0724,1374,6591,021.0,045.1,0.130,768.1,01.15,0.508
2014-02-23 02:45:00,5820E-2,5C000490,-0724,1374,6568,021.0,045.1,0.130,768.0,01.15,0.508
2014-02-23 02:46:00,5795E-2,5C000490,-0724,1374,6576,021.0,045.1,0.130,768.0,01.15,0.508
2014-02-23 02:47:00,5814E-2,5C000490,-0724,1374,6547,021.0,045.1,0.130,768.1,01.15,0.508
2014-02-23 02:48:00,5824E-2,5C000490,-0724,1374,6600,021.0,045.1,0.130,768.1,01.15,0.508
2014-02-23 02:49:00,5821E-2,5C000490,-0724,1373,6633,021.0,045.1,0.130,768.1,01.15,0.508
2014-02-23 02:50:00,5876E-2,5C000490,-0724,1373,6520,021.0,045.1,0.130,768.0,01.15,0.508
2014-02-23 02:51:00,5852E-2,5C000490,-0724,1373,6694,021.0,045.1,0.130,768.1,01.15,0.508
2014-02-23 02:52:00,5794E-2,5C000490,-0724,1373,6627,021.0,045.1,0.130,768.1,01.15,0.508
2014-02-23 02:53:00,5887E-2,5C000490,-0724,1374,6528,021.0,045.1,0.130,768.1,01.15,0.508
2014-02-23 02:54:00,5814E-2,5C000490,-0724,1374,6615,021.0,045.1,0.130,768.0,01.15,0.508
2014-02-23 02:55:00,5864E-2,5C000490,-0724,1374,6534,021.0,045.1,0.130,768.0,01.15,0.508
2014-02-23 02:56:00,5839E-2,5C000490,-0724,1374,6553,021.0,045.1,0.130,768.0,01.15,0.508
2014-02-23 02:57:00,5828E-2,5C000490,-0724,1373,6657,021.0,045.1,0.130,768.1,01.15,0.508
2014-02-23 02:58:00,5851E-2,5C000490,-0724,1373,6577,021.0,045.1,0.130,768.0,01.15,0.508
2014-02-23 02:59:00,5874E-2,5C000490,-0724,1373,6550,021.0,045.1,0.130,768.0,01.15,0.508
2014-02-23 03:00:00,5853E-2,5C000490,-0724,1374,6544,021.0,045.1,0.130,768.0,01.15,0.508
2014-02-23 03:01:00,5849E-2,5C000490,-0724,1373,6615,021.0,045.1,0.130,768.0,01.15,0.508
2014-02-23 03:02:00,5863E-2,5C000490,-0724,1374,6673,021.1,045.1,0.130,768.0,01.15,0.508
2014-02-23 03:03:00,5879E-2,5C000490,-0724,1374,6606,021.1,045.1,0.130,768.1,01.15,0.508
2014-02-23 03:04:00,5884E-2,5C000490,-0724,1374,6550,021.1,045.1,0.130,768.0,01.15,0.508
2014-02-23 03:05:00,5889E-2,5C000490,-0724,1374,6562,021.1,045.0,0.130,767.9,01.15,0.508
2014-02-23 03:06:00,5859E-2,5C000490,-0724,1374,6585,021.1,045.1,0.130,768.0,01.15,0.508
2014-02-23 03:07:00,5881E-2,5C000490,-0724,1374,6503,021.1,045.1,0.130,768.0,01.15,0.508
2014-02-23 03:08:00,5868E-2,5C000490,-0724,1374,6615,021.1,045.1,0.130,768.0,01.15,0.508
2014-02-23 03:09:00,5852E-2,5C000490,-0724,1374,6495,021.1,045.1,0.130,768.0,01.15,0.508
2014-02-23 03:10:00,5845E-2,5C000490,-0724,1374,6414,021.1,045.1,0.130,768.0,01.15,0.508
2014-02-23 03:11:00,5861E-2,5C000490,-0724,1374,6449,021.1,045.1,0.130,768.0,01.15,0.508
2014-02-23 03:12:00,5824E-2,5C000490,-0724,1374,6408,021.1,045.1,0.130,768.0,01.15,0.508
2014-02-23 03:13:00,5825E-2,5C000490,-0724,1374,6409,021.1,045.1,0.130,768.0,01.15,0.508
2014-02-23 03:14:00,5820E-2,5C000490,-0724,1374,6420,021.1,045.1,0.130,768.0,01.15,0.508
2014-02-23 03:15:00,5861E-2,5C000490,-0724,1375,6368,021.1,045.1,0.130,768.0,01.15,0.508
2014-02-23 03:16:00,5817E-2,5C000490,-0724,1375,6354,021.1,045.1,0.130,768.0,01.15,0.508
2014-02-23 03:17:00,5867E-2,5C000490,-0724,1375,6362,021.1,045.1,0.130,767.9,01.15,0.508
2014-02-23 03:18:00,5809E-2,5C000490,-0724,1375,6317,021.2,045.1,0.130,768.0,01.15,0.508
2014-02-23 03:19:00,5784E-2,5C000490,-0724,1375,6437,021.2,045.1,0.129,768.0,01.15,0.508
2014-02-23 03:20:00,5776E-2,5C000490,-0724,1375,6447,021.2,045.1,0.129,768.0,01.15,0.508
2014-02-23 03:21:00,5846E-2,5C000490,-0724,1375,6422,021.2,045.1,0.129,768.0,01.15,0.508
2014-02-23 03:22:00,5801E-2,5C000490,-0724,1375,6343,021.2,045.1,0.129,768.0,01.15,0.508
2014-02-23 03:23:00,5831E-2,5C000490,-0724,1375,6380,021.2,045.1,0.129,768.0,01.15,0.508
2014-02-23 03:24:00,5853E-2,5C000490,-0724,1375,6338,021.2,045.1,0.129,767.9,01.15,0.508
2014-02-23 03:25:00,5808E-2,5C000490,-0724,1375,6392,021.2,045.1,0.129,768.0,01.15,0.508
2014-02-23 03:26:00,5776E-2,5C000490,-0724,1375,6338,021.2,045.1,0.129,768.0,01.15,0.508
2014-02-23 03:27:00,5819E-2,5C000490,-0724,1375,6261,021.2,045.1,0.129,767.9,01.15,0.508
2014-02-23 03:28:00,5827E-2,5C000490,-0724,1375,6436,021.2,045.1,0.129,767.9,01.15,0.508
2014-02-23 03:29:00,5827E-2,5C000490,-0724,1374,6418,021.2,045.1,0.129,768.0,01.15,0.508
2014-02-23 03:30:00,5791E-2,5C000490,-0724,1375,6286,021.2,045.1,0.129,768.0,01.15,0.508
2014-02-23 03:31:00,5817E-2,5C000490,-0724,1375,6346,021.2,045.1,0.129,767.9,01.15,0.508
2014-02-23 03:32:00,5829E-2,5C000490,-0724,1375,6462,021.3,045.1,0.129,768.0,01.15,0.508
2014-02-23 03:33:00,5821E-2,5C000490,-0724,1375,6345,021.3,045.1,0.129,768.0,01.15,0.508
2014-02-23 03:34:00,5793E-2,5C000490,-0724,1375,6350,021.3,045.1,0.129,767.9,01.15,0.508
2014-02-23 03:35:00,5837E-2,5C000490,-0724,1375,6454,021.3,045.1,0.129,767.9,01.15,0.508
2014-02-23 03:36:00,5847E-2,5C000490,-0724,1375,6426,021.3,045.1,0.129,767.9,01.15,0.508
2014-02-23 03:37:00,5804E-2,5C000490,-0724,1375,6278,021.3,045.1,0.129,767.9,01.15,0.508
2014-02-23 03:38:00,5778E-2,5C000490,-0724,1375,6342,021.3,045.1,0.129,768.0,01.15,0.508
2014-02-23 03:39:00,5840E-2,5C000490,-0724,1375,6335,021.3,045.1,0.129,767.9,01.15,0.508
2014-02-23 03:40:00,5845E-2,5C000490,-0724,1375,6285,021.3,045.1,0.129,767.9,01.15,0.508
2014-02-23 03:41:00,5910E-2,5C000490,-0724,1375,6323,021.3,045.1,0.129,767.9,01.15,0.508
2014-02-23 03:42:00,5859E-2,5C000490,-0724,1375,6346,021.3,045.1,0.129,767.9,01.15,0.508
2014-02-23 03:43:00,5895E-2,5C000490,-0724,1375,6299,021.3,045.1,0.129,767.9,01.15,0.508
2014-02-23 03:44:00,5813E-2,5C000490,-0724,1375,6282,021.3,045.1,0.129,767.9,01.15,0.508
2014-02-23 03:45:00,5812E-2,5C000490,-0724,1375,6233,021.3,045.1,0.129,767.9,01.15,0.508
2014-02-23 03:46:00,5869E-2,5C000490,-0724,1375,6248,021.3,045.1,0.129,767.8,01.15,0.508
2014-02-23 03:47:00,5838E-2,5C000490,-0724,1375,6258,021.3,045.1,0.129,767.9,01.15,0.508
2014-02-23 03:48:00,5846E-2,5C000490,-0724,1375,6188,021.3,045.1,0.129,767.9,01.15,0.508
2014-02-23 03:49:00,5863E-2,5C000490,-0724,1375,6329,021.4,045.1,0.129,767.8,01.15,0.508
2014-02-23 03:50:00,5917E-2,5C000490,-0724,1375,6327,021.4,045.1,0.129,767.8,01.15,0.508
2014-02-23 03:51:00,5889E-2,5C000490,-0724,1375,6304,021.4,045.1,0.129,767.9,01.15,0.508
2014-02-23 03:52:00,5969E-2,5C000490,-0724,1375,6358,021.4,045.1,0.129,767.8,01.15,0.508
2014-02-23 03:53:00,5911E-2,5C000490,-0724,1375,6285,021.4,045.1,0.129,767.8,01.15,0.508
2014-02-23 03:54:00,5924E-2,5C000490,-0724,1375,6333,021.4,045.1,0.129,767.9,01.15,0.508
2014-02-23 03:55:00,5915E-2,5C000490,-0724,1375,6336,021.4,045.1,0.129,767.7,01.15,0.508
2014-02-23 03:56:00,5822E-2,5C000490,-0724,1375,6387,021.4,045.1,0.128,767.8,01.15,0.508
2014-02-23 03:57:00,5963E-2,5C000490,-0724,1375,6226,021.4,045.1,0.129,767.8,01.15,0.508
2014-02-23 03:58:00,5949E-2,5C000490,-0724,1375,6084,021.4,045.1,0.128,767.7,01.15,0.508
2014-02-23 03:59:00,5940E-2,5C000490,-0724,1375,6132,021.4,045.1,0.128,767.8,01.15,0.508
2014-02-23 04:00:00,5938E-2,5C000490,-0724,1375,6123,021.4,045.1,0.129,767.7,01.15,0.508
2014-02-23 04:01:00,5946E-2,5C000490,-0724,1375,6199,021.4,045.1,0.128,767.7,01.15,0.508
2014-02-23 04:02:00,5963E-2,5C000490,-0724,1375,5992,021.4,045.1,0.128,767.7,01.15,0.508
2014-02-23 04:03:00,5956E-2,5C000490,-0724,1375,6169,021.4,045.1,0.128,767.8,01.15,0.508
2014-02-23 04:04:00,5917E-2,5C000490,-0724,1375,6062,021.5,045.1,0.128,767.7,01.15,0.508
2014-02-23 04:05:00,5932E-2,5C000490,-0724,1375,6046,021.5,045.1,0.128,767.7,01.15,0.508
2014-02-23 04:06:00,5969E-2,5C000490,-0724,1375,6031,021.5,045.1,0.128,767.8,01.15,0.508
2014-02-23 04:07:00,5915E-2,5C000490,-0724,1375,5979,021.5,045.1,0.128,767.7,01.15,0.508
2014-02-23 04:08:00,5906E-2,5C000490,-0724,1375,6098,021.5,045.1,0.128,767.7,01.15,0.508
2014-02-23 04:09:00,5936E-2,5C000490,-0724,1375,6100,021.5,045.1,0.128,767.7,01.15,0.508
2014-02-23 04:10:00,5951E-2,5C000490,-0724,1375,6144,021.5,045.1,0.128,767.7,01.15,0.508
2014-02-23 04:11:00,5944E-2,5C000490,-0724,1375,6059,021.5,045.1,0.128,767.7,01.15,0.508
2014-02-23 04:12:00,5882E-2,5C000490,-0724,1375,5995,021.5,045.1,0.128,767.7,01.15,0.508
2014-02-23 04:13:00,5883E-2,5C000490,-0724,1375,6102,021.5,045.1,0.128,767.8,01.15,0.508
2014-02-23 04:14:00,5896E-2,5C000490,-0724,1375,5997,021.5,045.1,0.128,767.8,01.15,0.508
2014-02-23 04:15:00,5872E-2,5C000490,-0724,1375,6118,021.5,045.1,0.128,767.7,01.15,0.508
2014-02-23 04:16:00,5900E-2,5C000490,-0724,1375,6081,021.5,045.1,0.128,767.6,01.15,0.508
2014-02-23 04:17:00,5872E-2,5C000490,-0724,1375,6024,021.6,045.0,0.128,767.7,01.15,0.508
2014-02-23 04:18:00,5935E-2,5C000490,-0724,1375,6062,021.6,045.1,0.128,767.7,01.15,0.508
2014-02-23 04:19:00,5897E-2,5C000490,-0724,1375,6081,021.6,045.1,0.128,767.7,01.15,0.508
2014-02-23 04:20:00,5966E-2,5C000490,-0724,1375,5976,021.5,045.1,0.128,767.7,01.15,0.508
2014-02-23 04:21:00,5909E-2,5C000490,-0724,1375,6020,021.6,045.1,0.128,767.7,01.15,0.508
2014-02-23 04:22:00,5875E-2,5C000490,-0724,1375,6098,021.6,045.1,0.128,767.7,01.15,0.508
2014-02-23 04:23:00,5931E-2,5C000490,-0724,1375,6002,021.6,045.1,0.128,767.6,01.15,0.508